OBJECT D, 60748

Orbit data source: Space-Track

You're viewing an Uncataloged Satellite

Recently launched and/or uncataloged satellites may have evolving metadata. Metadata may include but not limited to: Owner, Maufacturer, Bus, Motor, and Mission.

OBJECT D, 60748 is a Chinese satellite in SSO that was launched on Thu, 29 Aug 2024 UTC via a GUSHENXING 1 launch vehicle from the Yellow Sea Launch Area, China (YSLA). Unknown objects in Earth's orbit typically refer to objects detected orbiting the Earth but have not yet been identified or cataloged. These objects could be anything from previously untracked satellites, spent rocket stages, debris from satellite collisions, or even natural meteoroids temporarily captured by Earth's gravity.

Loading next visibility...
Identifier
60748, 2024-153D
Orbit
SSO
Last TLE update
9 hours ago
Origin
Flag of CNJTXZ (CN / PRC)
Manufacturer
JTXZ
Mission
Operational Commercial Imaging
Bus & Motor
JTX, Unknown motor
Mass
~50 kg wet, ~50 kg dry
Launch date (UTC)
2024-08-29 (8 months ago)
Launch vehicle
GUSHENXING 1
Launch site
Yellow Sea Launch Area, China (YSLA)
Object type
Unknown
Shape & HBR
Box + 1 Pan, 5 m
Radar Cross Section
5.339 m², Medium (>0.1 m² and < 1m²)

Expand to show TLE details & history

TLE from 9 hours ago
0 OBJECT D
1 60748U 24153D   25129.49712450  .00018068  00000-0  75879-3 0  9993
2 60748  97.6354 254.4294 0014756 129.9935 230.2599 15.23409139 38392
Epoch: 2025-05-09T11:55Z
Definitive object data (Epoch: 2025-05-09T11:55:51.556Z)
Latitude
-0.00008°
Longitude
-152.08783°
Altitude
505.15 km
Speed
7.608 km/s
True Right ascension
16h 57m 43s
True Declination
0° 00' 00"
Sunlit
Object was in full shadow at TLE epoch
Visualization TLE readout
Latitude
-33.17249°
Longitude
-146.69345°
Altitude
517.747 km
Speed
7.598 km/s
Apparent Right ascension
17h 22m 18s
Apparent Declination
-36° 14' 21"
Sunlit
Object is in full shadow
Visualization observer readout
Local Sidereal Time
05:25:50
Azimuth
11.024° NNE
Elevation
-86.257°
Doppler factor
1
Orbital elements
Apogee altitude
502.676 km
Perigee altitude
482.4 km
Semi-major axis
6,870.675 km
Eccentricity
0.0014756
Inclination
97.6354°
RAAN
254.4294°
Arg. of periapsis
129.9935°
True anomaly
230.13003°
Mean anomaly
230.2599°
Eccentric anomaly
230.19495°
Mean motion
3.81104 °/min
BSTAR
0.00075879
Orbital period
94.46 mins
Loading maneuver chart data...
Loading SW <> Apogee altitude chart data...
Loading historical data...
Loading historical data...
Loading historical data...
Loading historical data...
Loading historical data...
Loading historical data...
Loading historical data...

OBJECT D Visibility forecast

Observer location: undefined°, undefined°

Span
Click to sort rows by Start time (UTC) header in descending order
Start Az.
Max El. time (UTC)
Max El. Az.
Max El.
End time (UTC)
End Az.
5 mins2025-05-09 21:56:34.961Z341.604° N2025-05-09 21:59:34.961Z283.748° WNW20.446°2025-05-09 22:01:34.961Z244.485° WSW
5 mins2025-05-10 08:33:34.961Z184.982° SSW2025-05-10 08:35:34.961Z234.37° WSW39.404°2025-05-10 08:38:34.961Z336.027° NNW
|